Location: Unspecified
(58.7730°N, 5.8460°E)
Time: 02:36:22
(UTC+02:00)

Cosmos 2058 - Visible Passes

Search period start: 26 May 2016 00:00
Search period end: 05 June 2016 00:00
Orbit: 564 x 587 km, 82.5° (Epoch: 25 May)

Date Brightness Start Highest point End Pass type
(mag) Time Alt. Az. Time Alt. Az. Time Alt. Az.
26 May 3.6 02:55:07 10° S 02:59:11 50° E 03:03:14 10° NNE visible
27 May 5.5 01:25:34 10° E 01:26:42 11° ENE 01:27:51 10° ENE visible
27 May 3.3 02:58:41 10° S 03:02:50 62° E 03:06:58 10° NNE visible
28 May 5.4 01:28:10 10° ESE 01:30:14 14° E 01:32:18 10° NE visible
28 May 3.0 03:02:18 10° S 03:06:30 78° E 03:10:41 10° NNE visible
29 May 5.2 01:31:08 10° ESE 01:33:46 16° E 01:36:24 10° NE visible
29 May 2.9 03:05:59 10° SSW 03:10:10 85° WNW 03:14:22 10° NNE visible
30 May 4.9 01:34:16 10° SE 01:37:19 20° E 01:40:22 10° NE visible
30 May 3.1 03:09:42 10° SSW 03:13:53 69° WNW 03:18:03 10° N visible
31 May 4.6 01:37:31 10° SE 01:40:54 24° E 01:44:16 10° NNE visible
31 May 3.3 03:13:29 10° SSW 03:17:35 55° WNW 03:21:42 10° N visible
01 Jun 4.3 01:40:52 10° SSE 01:44:28 29° E 01:48:06 10° NNE visible
01 Jun 3.6 03:17:18 10° SW 03:21:19 45° WNW 03:25:20 10° N visible
02 Jun 4.0 01:44:16 10° SSE 01:48:05 36° E 01:51:54 10° NNE visible
02 Jun 3.9 03:21:11 10° SW 03:25:04 37° WNW 03:28:57 10° N visible
03 Jun 3.6 01:47:52 11° SSE 01:51:42 44° E 01:55:40 10° NNE visible
04 Jun 3.3 01:51:28 11° S 01:55:20 56° E 01:59:24 10° NNE visible
